• In Romania
  • List of Countries
  • For 7 days
  • Water Temperature
  • Satellite Maps
  • Weather Map
  • Weather Widgets
  • user-avatar
    Login

    Hourly Weather Annaba

    Today, 28 May, Sunday

    Time Temperature Precipitation Wind Pressure Humidity
    00:00 +20°C° 0 mm 4 mps 761 mmHg 78%
    01:00 +19°C° 0 mm 4 mps 761 mmHg 79%
    02:00 +18°C° 0 mm 4 mps 761 mmHg 80%
    03:00 +18°C° 0 mm 4 mps 761 mmHg 80%
    04:00 +18°C° 0 mm 4 mps 761 mmHg 81%
    05:00 +19°C° 0 mm 4 mps 761 mmHg 74%
    06:00 +21°C° 0 mm 4 mps 761 mmHg 68%
    07:00 +23°C° 0 mm 4 mps 761 mmHg 59%
    08:00 +26°C° 0 mm 4 mps 761 mmHg 53%
    09:00 +28°C° 0 mm 4 mps 761 mmHg 46%
    10:00 +30°C° 0 mm 4 mps 761 mmHg 40%
    11:00 +32°C° 0 mm 5 mps 761 mmHg 36%
    12:00 +33°C° 0 mm 6 mps 761 mmHg 33%
    13:00 +34°C° 0 mm 6 mps 760 mmHg 30%
    14:00 +34°C° 0 mm 7 mps 760 mmHg 31%
    15:00 +33°C° 0 mm 7 mps 760 mmHg 31%
    16:00 +33°C° 0 mm 8 mps 759 mmHg 32%
    17:00 +31°C° 0 mm 8 mps 759 mmHg 36%
    18:00 +29°C° 0 mm 7 mps 759 mmHg 41%
    19:00 +27°C° 0 mm 7 mps 759 mmHg 45%
    20:00 +24°C° 0 mm 6 mps 760 mmHg 52%
    21:00 +22°C° 0 mm 6 mps 760 mmHg 59%
    22:00 +20°C° 0 mm 5 mps 760 mmHg 66%
    23:00 +20°C° 0 mm 5 mps 760 mmHg 64%

    Tomorrow, 29 May, Monday

    Time Temperature Precipitation Wind Pressure Humidity
    00:00 +20°C° 0 mm 4 mps 760 mmHg 63%
    01:00 +19°C° 0 mm 4 mps 760 mmHg 62%
    02:00 +19°C° 0 mm 4 mps 759 mmHg 63%
    03:00 +19°C° 0 mm 4 mps 759 mmHg 63%
    04:00 +19°C° 0 mm 4 mps 759 mmHg 64%
    05:00 +20°C° 0 mm 4 mps 759 mmHg 60%
    06:00 +21°C° 0 mm 4 mps 759 mmHg 56%
    07:00 +23°C° 0 mm 4 mps 759 mmHg 52%
    08:00 +26°C° 0 mm 4 mps 759 mmHg 45%
    09:00 +29°C° 0 mm 4 mps 758 mmHg 39%
    10:00 +32°C° 0 mm 4 mps 758 mmHg 33%
    11:00 +33°C° 0 mm 4 mps 758 mmHg 31%
    12:00 +35°C° 0 mm 5 mps 758 mmHg 29%
    13:00 +36°C° 0 mm 5 mps 758 mmHg 27%
    14:00 +35°C° 0 mm 6 mps 758 mmHg 27%
    15:00 +35°C° 0 mm 6 mps 757 mmHg 28%
    16:00 +35°C° 0 mm 6 mps 757 mmHg 29%
    17:00 +33°C° 0 mm 5 mps 757 mmHg 34%
    18:00 +30°C° 0 mm 4 mps 757 mmHg 40%
    19:00 +28°C° 0 mm 3 mps 757 mmHg 46%
    20:00 +26°C° 0 mm 3 mps 758 mmHg 53%
    21:00 +22°C° 0 mm 3 mps 758 mmHg 60%
    22:00 +20°C° 0 mm 3 mps 759 mmHg 68%
    23:00 +20°C° 0 mm 3 mps 759 mmHg 67%

    Day after tomorrow, 30 May, Tuesday

    Time Temperature Precipitation Wind Pressure Humidity
    00:00 +20°C° 0 mm 3 mps 758 mmHg 66%
    01:00 +20°C° 0 mm 3 mps 758 mmHg 66%
    02:00 +20°C° 0 mm 3 mps 758 mmHg 68%
    03:00 +19°C° 0 mm 3 mps 758 mmHg 70%
    04:00 +19°C° 0 mm 2 mps 758 mmHg 72%
    05:00 +20°C° 0 mm 2 mps 759 mmHg 69%
    06:00 +21°C° 0 mm 2 mps 759 mmHg 66%
    07:00 +24°C° 0 mm 1 mps 759 mmHg 63%
    08:00 +25°C° 0.1 mm 2 mps 759 mmHg 59%
    09:00 +27°C° 0.1 mm 2 mps 760 mmHg 54%
    10:00 +29°C° 0.1 mm 2 mps 760 mmHg 49%
    11:00 +29°C° 0 mm 3 mps 760 mmHg 48%
    12:00 +30°C° 0 mm 3 mps 760 mmHg 47%
    13:00 +32°C° 0 mm 4 mps 760 mmHg 47%
    14:00 +30°C° 0 mm 4 mps 760 mmHg 50%
    15:00 +30°C° 0 mm 4 mps 760 mmHg 53%
    16:00 +29°C° 0 mm 4 mps 760 mmHg 57%
    17:00 +28°C° 0.1 mm 3 mps 760 mmHg 64%
    18:00 +26°C° 0.1 mm 2 mps 760 mmHg 72%
    19:00 +24°C° 0.1 mm 2 mps 761 mmHg 79%
    20:00 +23°C° 0 mm 1 mps 761 mmHg 83%
    21:00 +23°C° 0 mm 1 mps 761 mmHg 88%
    22:00 +22°C° 0 mm 1 mps 761 mmHg 92%
    23:00 +22°C° 0 mm 1 mps 761 mmHg 91%

    31 May, Wednesday

    Time Temperature Precipitation Wind Pressure Humidity
    00:00 +21°C° 0 mm 1 mps 761 mmHg 91%
    01:00 +20°C° 0 mm 2 mps 761 mmHg 90%
    02:00 +21°C° 0 mm 1 mps 761 mmHg 89%
    03:00 +21°C° 0 mm 1 mps 761 mmHg 88%
    04:00 +21°C° 0 mm 1 mps 761 mmHg 86%
    05:00 +22°C° 0 mm 1 mps 761 mmHg 79%
    06:00 +24°C° 0 mm 1 mps 761 mmHg 72%
    07:00 +25°C° 0 mm 1 mps 761 mmHg 65%
    08:00 +27°C° 0 mm 1 mps 761 mmHg 58%
    09:00 +29°C° 0 mm 2 mps 761 mmHg 51%
    10:00 +31°C° 0 mm 2 mps 761 mmHg 44%
    11:00 +33°C° 0 mm 3 mps 761 mmHg 42%
    12:00 +34°C° 0 mm 3 mps 761 mmHg 39%
    13:00 +35°C° 0 mm 4 mps 760 mmHg 37%
    14:00 +34°C° 0.1 mm 4 mps 760 mmHg 38%
    15:00 +34°C° 0.1 mm 4 mps 760 mmHg 39%
    16:00 +33°C° 0.1 mm 4 mps 760 mmHg 40%
    17:00 +30°C° 1.2 mm 3 mps 760 mmHg 51%
    18:00 +28°C° 1.2 mm 2 mps 760 mmHg 63%
    19:00 +25°C° 1.2 mm 1 mps 760 mmHg 74%
    20:00 +24°C° 1.1 mm 2 mps 761 mmHg 77%
    21:00 +24°C° 1.1 mm 3 mps 761 mmHg 80%
    22:00 +22°C° 1.1 mm 3 mps 761 mmHg 83%
    23:00 +22°C° 0 mm 3 mps 761 mmHg 82%

    1 June, Thursday

    Time Temperature Precipitation Wind Pressure Humidity
    00:00 +23°C° 0 mm 2 mps 761 mmHg 80%
    01:00 +23°C° 0 mm 1 mps 760 mmHg 78%
    02:00 +22°C° 0.1 mm 1 mps 760 mmHg 79%
    03:00 +22°C° 0.1 mm 1 mps 760 mmHg 79%
    04:00 +22°C° 0.1 mm 1 mps 760 mmHg 79%
    05:00 +23°C° 0.1 mm 1 mps 760 mmHg 75%
    06:00 +24°C° 0.1 mm 1 mps 760 mmHg 71%
    07:00 +24°C° 0.1 mm 0 mps 760 mmHg 67%
    08:00 +28°C° 0 mm 1 mps 760 mmHg 60%
    09:00 +30°C° 0 mm 1 mps 760 mmHg 53%
    10:00 +32°C° 0 mm 1 mps 760 mmHg 46%
    11:00 +34°C° 0 mm 2 mps 760 mmHg 43%
    12:00 +34°C° 0 mm 2 mps 760 mmHg 40%
    13:00 +35°C° 0 mm 3 mps 759 mmHg 37%
    14:00 +35°C° 0.2 mm 4 mps 759 mmHg 39%
    15:00 +34°C° 0.2 mm 4 mps 759 mmHg 41%
    16:00 +34°C° 0.2 mm 4 mps 759 mmHg 44%
    17:00 +31°C° 0.4 mm 3 mps 759 mmHg 53%
    18:00 +29°C° 0.4 mm 2 mps 759 mmHg 62%
    19:00 +26°C° 0.4 mm 1 mps 759 mmHg 71%
    20:00 +25°C° 0.9 mm 1 mps 760 mmHg 75%
    21:00 +24°C° 0.9 mm 1 mps 760 mmHg 80%
    22:00 +23°C° 0.9 mm 1 mps 761 mmHg 84%
    23:00 +23°C° 0.4 mm 1 mps 760 mmHg 84%

    2 June, Friday

    Time Temperature Precipitation Wind Pressure Humidity
    00:00 +23°C° 0.4 mm 1 mps 760 mmHg 83%
    01:00 +22°C° 0.4 mm 1 mps 760 mmHg 83%
    02:00 +22°C° 0 mm 1 mps 759 mmHg 83%
    03:00 +22°C° 0 mm 1 mps 759 mmHg 84%
    04:00 +21°C° 0 mm 1 mps 759 mmHg 85%
    05:00 +23°C° 0 mm 1 mps 759 mmHg 80%
    06:00 +24°C° 0 mm 1 mps 759 mmHg 75%
    07:00 +26°C° 0 mm 1 mps 759 mmHg 70%
    08:00 +27°C° 0 mm 1 mps 759 mmHg 63%
    09:00 +29°C° 0 mm 2 mps 759 mmHg 57%
    10:00 +31°C° 0 mm 2 mps 759 mmHg 50%
    11:00 +33°C° 0 mm 3 mps 759 mmHg 47%
    12:00 +34°C° 0 mm 3 mps 759 mmHg 44%
    13:00 +35°C° 0 mm 4 mps 759 mmHg 41%
    14:00 +34°C° 0 mm 4 mps 758 mmHg 42%
    15:00 +34°C° 0 mm 4 mps 758 mmHg 43%
    16:00 +34°C° 0 mm 4 mps 758 mmHg 45%
    17:00 +32°C° 0 mm 4 mps 758 mmHg 50%
    18:00 +29°C° 0 mm 3 mps 759 mmHg 55%
    19:00 +28°C° 0 mm 3 mps 759 mmHg 60%
    20:00 +26°C° 0 mm 2 mps 759 mmHg 67%
    21:00 +24°C° 0 mm 2 mps 760 mmHg 74%
    22:00 +22°C° 0 mm 1 mps 760 mmHg 80%
    23:00 +22°C° 0 mm 1 mps 760 mmHg 81%
    Show more